CW0230 Weather Reports


Display with metric or nautical units.
time (UTC)temp
F
wind
direction
speed
MPH
gust
MPH
rain 1hr
in
rain 24hr
in
rain mn
in
humidity
%
barometer
mb
20260507081004 54 179 2.0 7.0 0.00 0.00 0.00 80 1015.6
20260507075504 53 147 2.0 6.0 0.00 0.00 0.00 81 1015.5
20260507075005 53 87 3.0 6.0 0.00 0.00 0.00 80 1015.5
20260507074005 52 87 3.0 7.0 0.00 0.00 0.00 80 1015.4
20260507073504 52 86 3.0 7.0 0.00 0.00 0.00 80 1015.4
20260507072504 52 133 3.0 6.0 0.00 0.00 0.00 80 1015.4
20260507070009 51 123 3.0 7.0 0.00 0.00 0.00 80 1015.3
20260507064505 50 135 2.0 6.0 0.00 0.00 0.00 82 1015.2
20260507064005 50 114 2.0 6.0 0.00 0.00 0.00 82 1015.2
20260507063505 49 131 1.0 3.0 0.00 0.00 0.00 83 1015.2
20260507062005 49 139 2.0 3.0 0.00 0.00 0.00 82 1015.4
20260507061504 48 146 2.0 3.0 0.00 0.00 0.00 82 1015.3
20260507061004 48 146 2.0 3.0 0.00 0.00 0.00 82 1015.3
20260507055504 48 123 1.0 5.0 0.00 0.00 0.00 82 1015.1
20260507052004 48 107 1.0 2.0 0.00 0.00 0.00 80 1014.8
20260507050505 48 117 2.0 3.0 0.00 0.00 0.00 80 1014.9
20260507050006 48 100 1.0 3.0 0.00 0.00 0.00 79 1014.8
20260507043504 48 151 2.0 7.0 0.00 0.00 0.00 78 1014.7
20260507042505 48 120 2.0 6.0 0.00 0.00 0.00 78 1014.6
20260507042004 49 77 2.0 6.0 0.00 0.00 0.00 77 1014.7
20260507041504 49 97 2.0 6.0 0.00 0.00 0.00 77 1014.7
20260507041004 49 105 2.0 6.0 0.00 0.00 0.00 77 1014.7
20260507035504 49 90 3.0 7.0 0.00 0.00 0.00 76 1014.7
20260507035004 49 98 1.0 6.0 0.00 0.00 0.00 76 1014.7
20260507033505 49 143 1.0 3.0 0.00 0.00 0.00 75 1014.6
20260507032504 49 117 1.0 3.0 0.00 0.00 0.00 75 1014.6
20260507032004 49 135 2.0 5.0 0.00 0.00 0.00 74 1014.7
20260507031505 49 118 1.0 5.0 0.00 0.00 0.00 74 1014.7
20260507030504 49 79 2.0 5.0 0.00 0.00 0.00 74 1014.6
20260507025005 49 96 1.0 7.0 0.00 0.00 0.00 73 1014.7
20260507023005 49 115 1.0 5.0 0.00 0.00 0.00 73 1014.6
20260507022505 49 98 2.0 5.0 0.00 0.00 0.00 73 1014.6
20260507022004 49 116 1.0 6.0 0.00 0.00 0.00 73 1014.6
20260507021005 50 115 2.0 5.0 0.00 0.00 0.00 72 1014.6
20260507015505 50 95 1.0 5.0 0.00 0.00 0.00 72 1014.6
20260507015005 50 93 2.0 3.0 0.00 0.00 0.00 72 1014.7
20260507014504 50 81 2.0 3.0 0.00 0.00 0.00 72 1014.6
20260507013505 50 74 0.0 5.0 0.00 0.00 0.00 72 1014.7
20260507013005 50 89 2.0 7.0 0.00 0.00 0.00 71 1014.6
20260507012505 50 111 2.0 7.0 0.00 0.00 0.00 71 1014.6
20260507011005 51 79 1.0 3.0 0.00 0.00 0.00 71 1014.6
20260507010005 51 78 1.0 5.0 0.00 0.00 0.00 71 1014.6
20260507005505 51 83 1.0 5.0 0.00 0.00 0.00 71 1014.5
20260507004505 51 121 0.0 3.0 0.00 0.00 0.00 71 1014.6
20260507002505 51 117 1.0 5.0 0.00 0.00 0.00 71 1014.7
20260507002004 51 74 1.0 3.0 0.00 0.00 0.00 72 1014.7
20260507001505 51 72 1.0 3.0 0.00 0.00 0.00 72 1014.7
20260507001005 50 77 2.0 3.0 0.00 0.00 0.00 72 1014.7
20260506233505 50 126 0.0 0.0 0.00 0.00 0.00 79 1014.7
20260506232505 50 126 0.0 1.0 0.00 0.00 0.00 80 1014.7
20260506231504 50 126 0.0 1.0 0.00 0.00 0.00 80 1014.7
20260506231004 50 126 0.0 1.0 0.00 0.00 0.00 80 1014.7
20260506230504 50 126 0.0 1.0 0.00 0.00 0.00 81 1014.7
20260506230004 50 126 0.0 1.0 0.00 0.00 0.00 82 1014.8
20260506225504 50 126 0.0 0.0 0.00 0.00 0.00 81 1014.7
20260506224504 50 126 0.0 0.0 0.00 0.00 0.00 81 1014.8
20260506223505 50 126 0.0 0.0 0.00 0.00 0.00 80 1014.6
20260506221504 51 126 0.0 0.0 0.00 0.00 0.00 79 1014.6
20260506220504 51 126 0.0 1.0 0.00 0.00 0.00 78 1014.6
20260506215504 51 126 0.0 2.0 0.00 0.00 0.00 77 1014.5
20260506214505 52 126 0.0 3.0 0.00 0.00 0.00 76 1014.5
20260506214005 52 127 0.0 2.0 0.00 0.00 0.00 76 1014.5
20260506213005 52 127 0.0 2.0 0.00 0.00 0.00 75 1014.6
20260506211005 53 138 1.0 3.0 0.00 0.00 0.00 75 1014.4
20260506210504 54 144 1.0 3.0 0.00 0.00 0.00 74 1014.4
20260506205504 54 144 1.0 2.0 0.00 0.00 0.00 74 1014.3
20260506203504 54 144 1.0 2.0 0.00 0.00 0.00 73 1014.2
20260506203005 55 144 0.0 2.0 0.00 0.00 0.00 72 1014.2
20260506202505 55 144 0.0 2.0 0.00 0.00 0.00 72 1014.2
20260506202004 55 144 1.0 1.0 0.00 0.00 0.00 71 1014.1
20260506201505 55 144 0.0 2.0 0.00 0.00 0.00 70 1014.1
20260506200504 55 144 0.0 3.0 0.00 0.00 0.00 69 1014.1
20260506195504 55 184 1.0 3.0 0.00 0.00 0.00 66 1013.9
20260506194004 56 149 2.0 3.0 0.00 0.00 0.00 60 1013.8
20260506193005 56 39 0.0 3.0 0.00 0.00 0.00 56 1013.8
20260506185504 57 23 2.0 5.0 0.00 0.00 0.00 52 1013.6
20260506184505 58 12 2.0 3.0 0.00 0.00 0.00 52 1013.6
20260506183504 58 22 1.0 3.0 0.00 0.00 0.00 53 1013.5
20260506182504 58 338 2.0 3.0 0.00 0.00 0.00 52 1013.5
20260506182005 58 22 2.0 3.0 0.00 0.00 0.00 52 1013.5
20260506180505 58 333 2.0 3.0 0.00 0.00 0.00 51 1013.4
20260506180006 58 48 1.0 3.0 0.00 0.00 0.00 50 1013.3
20260506175505 58 8 2.0 3.0 0.00 0.00 0.00 51 1013.3
20260506175005 58 24 1.0 3.0 0.00 0.00 0.00 51 1013.3
20260506174004 59 320 1.0 3.0 0.00 0.00 0.00 49 1013.2
20260506173504 59 358 2.0 5.0 0.00 0.00 0.00 49 1013.1
20260506173005 59 38 2.0 5.0 0.00 0.00 0.00 48 1013.2
20260506171504 59 3 2.0 5.0 0.00 0.00 0.00 48 1013.1
20260506164004 60 5 2.0 8.0 0.00 0.00 0.00 48 1013.1
20260506163504 60 10 3.0 8.0 0.00 0.00 0.00 47 1013.2
20260506163005 60 340 2.0 5.0 0.00 0.00 0.00 47 1013.1
20260506161505 60 5 1.0 5.0 0.00 0.00 0.00 48 1013.1
20260506161005 60 333 2.0 5.0 0.00 0.00 0.00 46 1013.1
20260506160504 60 34 2.0 7.0 0.00 0.00 0.00 47 1013.1
20260506160005 60 21 3.0 7.0 0.00 0.00 0.00 47 1013.1
20260506155505 60 2 2.0 6.0 0.00 0.00 0.00 47 1013.1
20260506155005 60 343 2.0 6.0 0.00 0.00 0.00 48 1013.1
20260506153505 60 6 3.0 5.0 0.00 0.00 0.00 47 1013.2
20260506150505 61 16 3.0 8.0 0.00 0.00 0.00 46 1013.2
20260506150005 61 331 3.0 7.0 0.00 0.00 0.00 48 1013.2
20260506145004 61 30 5.0 8.0 0.00 0.00 0.00 46 1013.3
20260506144504 61 303 2.0 8.0 0.00 0.00 0.00 47 1013.3
20260506144004 61 102 3.0 8.0 0.00 0.00 0.00 45 1013.3
20260506143505 61 29 3.0 9.0 0.00 0.00 0.00 49 1013.4
20260506143005 61 36 3.0 9.0 0.00 0.00 0.00 47 1013.4
20260506141505 61 34 4.0 8.0 0.00 0.00 0.00 48 1013.4
20260506140505 61 0 3.0 8.0 0.00 0.00 0.00 48 1013.5
20260506135004 62 5 3.0 5.0 0.00 0.00 0.00 48 1013.6
20260506134505 62 125 2.0 5.0 0.00 0.00 0.00 46 1013.6
20260506133005 62 333 2.0 7.0 0.00 0.00 0.00 48 1013.6
20260506132504 62 346 4.0 7.0 0.00 0.00 0.00 47 1013.7
20260506131505 62 342 3.0 6.0 0.00 0.00 0.00 49 1013.6
20260506130005 61 26 5.0 10.0 0.00 0.00 0.00 48 1013.7
20260506125005 61 64 2.0 9.0 0.00 0.00 0.00 47 1013.7
20260506124004 61 330 5.0 8.0 0.00 0.00 0.00 48 1013.7
20260506123504 61 324 5.0 9.0 0.00 0.00 0.00 48 1013.7
20260506122505 60 338 5.0 9.0 0.00 0.00 0.00 50 1013.7
20260506115004 60 358 5.0 8.0 0.00 0.00 0.00 52 1013.9
20260506113505 59 21 5.0 7.0 0.00 0.00 0.00 54 1013.9
20260506113005 59 355 3.0 7.0 0.00 0.00 0.00 55 1013.9
20260506112504 59 323 3.0 6.0 0.00 0.00 0.00 53 1014.0
20260506110504 58 358 4.0 7.0 0.00 0.00 0.00 52 1014.0
20260506110005 58 346 3.0 9.0 0.00 0.00 0.00 55 1014.0
20260506105504 58 11 5.0 9.0 0.00 0.00 0.00 53 1014.1
20260506104005 58 70 1.0 7.0 0.00 0.00 0.00 57 1014.0
20260506103504 58 334 3.0 7.0 0.00 0.00 0.00 58 1013.9
20260506102504 57 2 4.0 7.0 0.00 0.00 0.00 59 1014.0
20260506102004 57 311 2.0 7.0 0.00 0.00 0.00 58 1014.0
20260506100505 56 2 5.0 10.0 0.00 0.00 0.00 60 1014.0
20260506100005 56 50 3.0 8.0 0.00 0.00 0.00 59 1014.0
20260506095505 56 10 2.0 8.0 0.00 0.00 0.00 63 1014.0
20260506095004 55 3 3.0 7.0 0.00 0.00 0.00 64 1014.0
20260506094504 55 359 5.0 7.0 0.00 0.00 0.00 63 1014.0
20260506093505 54 354 5.0 8.0 0.00 0.00 0.00 67 1014.0
20260506093005 54 45 2.0 7.0 0.00 0.00 0.00 68 1013.9
20260506092505 54 28 2.0 6.0 0.00 0.00 0.00 70 1014.0
20260506085005 53 62 3.0 7.0 0.00 0.00 0.00 69 1013.9
20260506084004 53 4 3.0 7.0 0.00 0.00 0.00 70 1013.9
20260506083504 53 66 3.0 7.0 0.00 0.00 0.00 70 1013.9
20260506083005 53 81 3.0 6.0 0.00 0.00 0.00 71 1013.9
20260506082504 52 1 3.0 7.0 0.00 0.00 0.00 73 1013.9